Weather History for Belleville, IL

Change the Weather History Date:

Saturday, January 19, 2013

  Actual Average Record
Temperature  
Mean Temperature 49 °F -  
Max Temperature 63 °F 38 °F 71 °F (1952)
Min Temperature 35 °F 18 °F -16 °F (1984)
Degree Days  
Heating Degree Days 16    
Moisture  
Dew Point 32 °F    
Average Humidity 55    
Maximum Humidity 80    
Minimum Humidity 36    
Precipitation  
Precipitation 0.00 in - - ()
Sea Level Pressure  
Sea Level Pressure 30.06 in    
Wind  
Wind Speed 6 mph (SW)    
Max Wind Speed 10 mph    
Max Gust Speed 18 mph    
Visibility 10 miles    
Events      
Averages and records for this station are not official NWS values.
T = Trace of Precipitation, MM = Missing Value Source: NWS Daily Summary

Daily Weather History Graph

Daily Weather History Graph

Search for Another Location

Airport:

Trip Planner

Search our weather history database for the weather conditions in past years. The results will help you decide how hot, cold, wet, or windy it might be!

Date:

Astronomy

Jan. 19, 2013 Rise Set
Actual Time 7:13 AM CST 5:07 PM CST
Civil Twilight 6:44 AM CST 5:35 PM CST
Nautical Twilight 6:12 AM CST 6:08 PM CST
Astronomical Twilight 5:40 AM CST 6:39 PM CST
Moon 11:32 AM CST (1/19) 12:49 AM CST (1/19)
Length of Visible Light 10h 50m
Length of Day
9h 53m
First Quarter, 57% of the Moon is Illuminated
Jan 19
First Quarter
Jan 26
Full
Feb 3
Last Quarter
Feb 10
New
Feb 17
First Quarter

Hourly Weather History & Observations

Time (CST) Temp. Windchill Dew Point Humidity Pressure Visibility Wind Dir Wind Speed Gust Speed Precip Events Conditions
12:55 AM 35.4 °F 31.5 °F 29.7 °F 80% 30.17 in 10.0 mi Variable 4.6 mph - N/A   Clear
1:55 AM 36.0 °F - 28.9 °F 76% 30.18 in 10.0 mi Calm Calm - N/A   Clear
2:55 AM 37.0 °F 33.3 °F 29.3 °F 74% 30.17 in 10.0 mi Variable 4.6 mph - N/A   Clear
3:55 AM 36.9 °F 32.2 °F 29.3 °F 74% 30.15 in 10.0 mi Variable 5.8 mph - N/A   Clear
4:55 AM 37.0 °F 32.4 °F 28.9 °F 73% 30.13 in 10.0 mi Variable 5.8 mph - N/A   Clear
5:55 AM 37.6 °F 34.0 °F 28.6 °F 70% 30.12 in 10.0 mi Variable 4.6 mph - N/A   Clear
6:55 AM 36.9 °F 32.2 °F 28.8 °F 72% 30.12 in 10.0 mi Variable 5.8 mph - N/A   Clear
7:55 AM 36.9 °F 32.2 °F 28.8 °F 72% 30.11 in 10.0 mi South 5.8 mph - N/A   Clear
8:55 AM 41.5 °F 37.1 °F 29.5 °F 62% 30.10 in 10.0 mi Variable 6.9 mph - N/A   Clear
9:55 AM 45.5 °F 41.3 °F 30.9 °F 57% 30.09 in 10.0 mi SSW 8.1 mph - N/A   Clear
10:55 AM 50.0 °F - 32.4 °F 51% 30.06 in 10.0 mi South 9.2 mph - N/A   Clear
11:55 AM 55.2 °F - 34.3 °F 45% 30.00 in 10.0 mi SSW 10.4 mph 18.4 mph N/A   Clear
12:55 PM 59.2 °F - 33.4 °F 38% 29.96 in 10.0 mi SSW 9.2 mph - N/A   Clear
1:55 PM 61.5 °F - 35.6 °F 38% 29.93 in 10.0 mi South 8.1 mph - N/A   Clear
2:55 PM 63.3 °F - 36.7 °F 37% 29.92 in 10.0 mi South 9.2 mph - N/A   Clear
3:55 PM 63.5 °F - 37.4 °F 38% 29.92 in 10.0 mi SW 3.5 mph - N/A   Clear
4:55 PM 59.5 °F - 32.7 °F 36% 29.95 in 10.0 mi Variable 5.8 mph - N/A   Clear
5:55 PM 56.3 °F - 31.5 °F 39% 29.97 in 10.0 mi Variable 4.6 mph - N/A   Clear
6:55 PM 51.3 °F - 31.6 °F 47% 30.00 in 10.0 mi West 4.6 mph - N/A   Clear
7:55 PM 53.8 °F - 31.8 °F 43% 30.03 in 10.0 mi Variable 6.9 mph - N/A   Clear
8:55 PM 52.9 °F - 31.6 °F 44% 30.05 in 10.0 mi West 8.1 mph - N/A   Clear
9:55 PM 51.8 °F - 32.2 °F 47% 30.07 in 10.0 mi WNW 8.1 mph - N/A   Clear
10:55 PM 50.0 °F - 32.2 °F 50% 30.09 in 10.0 mi WNW 10.4 mph 18.4 mph N/A   Clear
11:55 PM 45.0 °F 40.1 °F 32.4 °F 61% 30.12 in 10.0 mi NW 9.2 mph - N/A   Clear